Location: Alston School (historical)
(35.5076°N, 89.8251°W)
Time: 05:24:05
(UTC+00:00)

Cosmos 2151 - Pass Details

Date: 09 December 2025
Orbit: 559 x 575 km, 82.5° (Epoch: 19 January)

Event Time Altitude Azimuth Distance (km) Brightness Sun altitude
Rises 23:25:51 0° 356° (N) 2,785 6.2 -8.1°
Reaches altitude 10° 23:28:03 10° 359° (N) 1,886 5.3 -8.5°
Maximum altitude 23:32:11 66° 82° (E) 629 2.9 -9.3°
Drops below altitude 10° 23:36:18 10° 165° (SSE) 1,878 5.6 -10.1°
Sets 23:38:30 0° 168° (SSE) 2,773 6.5 -10.5°
